Regional Weather Roundup
Issued by NWS San Diego, CA

Home | Current Version | Previous Version | Text Only | Print | Product List | Glossary On
Versions: 1 2 3 4 5 6 7 8 9 10 11 12 13 14 15 16 17 18 19 20 21 22 23 24 25 26 27
000
ASUS46 KSGX 202211
RWRSGX

SAN DIEGO HOURLY WEATHER ROUNDUP
NATIONAL WEATHER SERVICE SAN DIEGO CA
300 PM PDT FRI APR 20 2018

NOTE: "FAIR" INDICATES FEW OR NO CLOUDS BELOW 12,000 FEET WITH NO
SIGNIFICANT WEATHER AND/OR OBSTRUCTIONS TO VISIBILITY.

CAZ042-043-060-061-PZZ750-775-202300-

GREATER SAN DIEGO AREA

CITY           SKY/WX    TMP DP  RH WIND       PRES   REMARKS
SAN DIEGO AP   SUNNY     66  50  56 W13       30.10S
NATIONAL CITY    N/A     65  54  68 NW7       30.10S
CHULA VISTA      N/A     65  54  67 W6        30.01S
IMPERIAL BEACH SUNNY     64  51  62 W14       30.09S
BROWN FIELD    SUNNY     66  49  54 NW8G20    30.07S
MIRAMAR MCAS   SUNNY     68  48  48 W9        30.07S
MONTGOMERY FLD SUNNY     65  49  56 W13       30.08R
GILLESPIE FLD  SUNNY     70  46  43 SW13      30.06R

$$

NORTH SAN DIEGO COUNTY

CITY           SKY/WX    TMP DP  RH WIND       PRES   REMARKS
CAMP PENDLETON SUNNY     65  51  60 SW12G20   30.06S
OCEANSIDE AP   SUNNY     66  50  56 SW16      30.06F
OCEANSIDE HBR    N/A     62  55  78 NE9       30.09F
VISTA            N/A     65  52  62 W3        30.04S
CARLSBAD       SUNNY     62  51  67 W14       30.07R
DEL MAR          N/A     64  55  73 CALM      30.10S
LA JOLLA SCRIP   N/A     60  54  79 SW10      30.08S
FALLBROOK        N/A     69  54  58 SW5       30.05R
ESCONDIDO        N/A     69  50  50 W8        30.06R
SAN MARCOS       N/A     65  51  60 W13       30.11S
POWAY            N/A     70  51  50 W1        30.07R

$$

EAST SAN DIEGO COUNTY

CITY           SKY/WX    TMP DP  RH WIND       PRES   REMARKS
RAMONA         SUNNY     71  46  40 W15       30.05S
SANTEE LAKES     N/A     69  50  51 W7        30.05S
LA MESA          N/A     65  50  56 W3        30.02S
JAMUL            N/A     69  50  51 W20       30.08R
CAMPO            N/A     71  36  27 SW16      30.01S

$$

ORANGE COUNTY AND THE LOS ANGELES BASIN

CITY           SKY/WX    TMP DP  RH WIND       PRES   REMARKS
JOHN WAYNE AP  MOSUNNY   69  48  47 W10G24    30.05R
LAGUNA BEACH     N/A     66  56  69 CALM      30.02S
LAKE FOREST FR   N/A     75  45  34 W6        29.92S
HUNTINGTON BCH   N/A     66  55  66 W12       30.06F
LOS ALAMITOS   SUNNY     70  46  42 SW21      30.04F
FULLERTON      SUNNY     75  48  38 SW12      30.03F
LONG BEACH     SUNNY     74  46  36 SW12      30.04F
L.A. AP        MOSUNNY   65  46  50 W20       30.07F
L.A. DOWNTOWN  SUNNY     66  49  54 VRB3      30.05S

$$

THE INLAND EMPIRE

CITY           SKY/WX    TMP DP  RH WIND       PRES   REMARKS
CORONA         SUNNY     79  41  25 MISG      30.02F
CHINO          SUNNY     80  41  24 W8        30.03F
ONTARIO        SUNNY     76  39  26 SW6       30.02F
SAN BERNARDINO SUNNY     77  34  20 W10       30.02F HAZE
RIVERSIDE AP   SUNNY     76  37  24 W8        30.01F
MORENO VALLEY    N/A     77  47  34 W7        28.14F
MARCH ARB      SUNNY     74  37  26 NW9       30.02F
HORSETHIEF CYN   N/A     76  31  19 E3        30.04F
PERRIS           N/A     73  46  37 S6        29.98F
HEMET EAST       N/A     73  32  22 SW1       30.01F
FRENCH VALLEY  FAIR      75  32  20 CALM      30.03F
TEMECULA         N/A     75  51  43 SW9       30.04F

$$

SAN BERNARDINO AND RIVERSIDE COUNTY MOUNTAINS

CITY           SKY/WX    TMP DP  RH WIND       PRES   REMARKS
BIG BEAR AP    SUNNY     54  16  22 N13G21    30.19S
ANGELUS OAKS     N/A     62  26  25 N8        30.07F

$$

SOUTHERN DESERT INCLUDING THE COACHELLA VALLEY

CITY           SKY/WX    TMP DP  RH WIND       PRES   REMARKS
PALM SPRINGS   SUNNY     84  30  14 VRB3      29.97F
THOUSAND PALMS   N/A     83  38  20 SW3       29.93F
PALM DESERT      N/A     86  36  16 CALM      31.57S
THERMAL        SUNNY     88  29  12 W7        29.92F
BLYTHE         SUNNY     83  29  14 NW15      29.95F
IMPERIAL AP    SUNNY     84  29  13 N10       29.96F
EL CENTRO NAS  SUNNY     83  24  11 N6        29.98F
YUMA AZ        SUNNY     81  31  16 W6        29.97F
MEXICALI       SUNNY     81  25  12 NW15      29.98F

$$

UPPER DESERT

CITY           SKY/WX    TMP DP  RH WIND       PRES   REMARKS
VICTORVILLE AP SUNNY     75  19  12 N20G29    30.07F
HESPERIA         N/A     74  24  15 N6        30.09F
APPLE VALLEY     N/A     77  24  14 SE14      30.08F
PALMDALE       SUNNY     75  24  15 VRB3      30.07F
LANCASTER      SUNNY     74  27  17 SW8       30.06F
EDWARDS AFB    SUNNY     77  20  12 SW8       30.03F
DAGGETT        SUNNY     80  23  12 NE12G20   30.02F
29 PALMS N     SUNNY     80  17   9 N18G33    30.07F
NEEDLES        SUNNY     85  28  12 NE8       29.94F

$$

REGIONAL REPORTS

CITY           SKY/WX    TMP DP  RH WIND       PRES   REMARKS
SANTA BARBARA  SUNNY     63  51  65 S10       30.07F
SANDBERG       SUNNY     60  33  36 N23G30    30.17S
LAS VEGAS NV   MOSUNNY   81  25  12 NW15G30   29.95F
PHOENIX AZ     MOSUNNY   76  29  17 W15       29.97F
TIJUANA        SUNNY     64  48  55 W8        30.10S
ENSENADA NW      N/A     62  32  32 W8        30.01R

$$

OFFSHORE ISLANDS

CITY           SKY/WX    TMP DP  RH WIND       PRES   REMARKS
CATALINA ARPT  SUNNY     60  45  57 W14       30.10S
SAN CLEMENTE I SUNNY     63  52  67 SW12      30.11S

$$

MARINE AND OFFSHORE BUOY REPORTS

STATION/POSITION SKY/WX   TEMP    WIND        PRES    VSBY  SWELL
                          AIR SEA DIR/SP/G                  HT/PER/DIR
                          (F)     (DEG/KT/KT) (MB)    (MI)  (FT/S/D)
TANNER BANKS               56 57              1019.5F
S CLEMENTE BASIN           60 63  260/ 10/ 12 1018.9F         5/290/ 9
SAN NICOLAS IS.               56                N/A           3/310/13
SO. S. ROSA ISLA           54 55  310/ 19/ 23 1018.7F         5/300/12
W. S. BARBARA CH              51  310/ 17/ 21 1019.3
M. S. BARBARA CH           56 55  220/  8/ 12 1019.5
S. MONICA BASIN                   260/ 12/ 14 1018.5
S PEDRO CHANNEL               56                N/A           2/270/13
CMP PENDLETON NS              58                N/A           2/210/17
OCEANSIDE OFFSHR              59                N/A           2/170/18
TORREY PINES OTR              60                N/A           2/260/13
SAN DIEGO BAY                 61              1018.4S
POINT LOMA SOUTH              60                N/A           2/170/18

$$





USA.gov is the U.S. government's official web portal to all federal, state and local government web resources and services.